[[{"header":{"parameterUnit":"m.s-1","parameterCategory":1,"la1":30.2991,"la2":30.254,"lo1":-89.0895,"lo2":-89.0444,"dy":0.0017,"dx":0.0017,"nx":28,"ny":28,"refTime":"2024-03-27T03:00:00:Z","depth":0,"parameterNumber":2,"parameterNumberName":"U-component_of_WINDS"},"data":[0,0,0,0,0,0,0,0,0,0,0,0,0,0,0,0,0,0,0,0,0,0,0,0,0,0,0,0,0,0,0,0,0,0,0,0,0,0,0,0,0,0,0,0,0,0,0,0,0,0,0,0,0,0,0,0,0,0,-1.1173,-1.1173,0,-1.1231,-1.1232,-1.1232,-1.1238,-1.1237,-1.1237,-1.1236,-1.13,-1.1302,-1.1305,0,0,0,0,0,0,0,0,0,0,0,0,0,-1.1074,-1.1075,-1.1173,-1.1173,-1.1174,-1.1231,-1.1232,-1.1232,-1.1238,-1.1237,-1.1237,-1.1236,-1.1299,-1.1302,-1.1305,0,0,0,0,0,0,0,0,0,0,0,0,0,-1.1123,-1.1076,-1.1173,-1.1184,-1.1185,-1.1231,-1.1232,-1.1233,-1.1238,-1.1237,-1.1236,-1.1235,-1.1299,-1.1302,-1.1305,-1.1345,0,0,-1.1316,-1.1317,0,0,0,0,0,0,0,0,-1.112,-1.1127,-1.1181,-1.1183,-1.1185,-1.1226,-1.122,-1.127,-1.1238,-1.1218,-1.1236,-1.1235,-1.1277,-1.1282,-1.1295,-1.1348,-1.1351,-1.1316,-1.1318,-1.132,-1.1321,0,0,0,0,0,0,0,-1.1117,-1.1124,-1.1196,-1.1182,-1.1184,-1.1188,-1.1194,-1.123,-1.1252,-1.122,-1.122,-1.1227,-1.1277,-1.1292,-1.1296,-1.1352,-1.1316,-1.1319,-1.1321,-1.1322,-1.1446,-1.1447,0,0,0,0,0,0,-1.111,-1.1121,-1.1194,-1.1198,-1.1149,-1.1191,-1.1197,-1.1214,-1.1252,-1.1256,-1.1228,-1.1227,-1.1286,-1.1292,-1.1299,-1.1352,-1.132,-1.1323,-1.1325,-1.1445,-1.1446,-1.1448,0,0,0,0,0,0,-1.1108,-1.1117,-1.1192,-1.116,-1.1169,-1.1193,-1.1212,-1.1216,-1.123,-1.1258,-1.1262,-1.1238,-1.1286,-1.1294,-1.1334,-1.1354,-1.1324,-1.1327,-1.1444,-1.1445,-1.1447,-1.1455,0,0,0,0,0,0,-1.1105,-1.1116,-1.1129,-1.116,-1.1171,-1.1224,-1.1213,-1.1217,-1.1235,-1.1235,-1.1268,-1.1273,-1.1286,-1.1329,-1.1338,-1.1358,-1.133,-1.1442,-1.1444,-1.1447,-1.1453,-1.1457,-1.146,0,0,0,0,0,-1.1102,-1.1129,-1.113,-1.1139,-1.1188,-1.1225,-1.1232,-1.1245,-1.1236,-1.1252,-1.127,-1.1272,-1.135,-1.1333,-1.1343,-1.1364,-1.1441,-1.1444,-1.1446,-1.1452,-1.1456,-1.146,0,0,0,0,0,0,-1.11,-1.1133,-1.1134,-1.1172,-1.1196,-1.1226,-1.1245,-1.1248,-1.1276,-1.1275,-1.1291,-1.1299,-1.134,-1.1356,-1.1337,-1.1408,-1.1395,-1.14,-1.1396,-1.14,-1.1403,-1.14,-1.1333,0,0,0,0,0,-1.1104,-1.113,-1.1158,-1.1188,-1.12,-1.1221,-1.1237,-1.1245,-1.1271,-1.1282,-1.1303,-1.133,-1.1361,-1.1381,-1.1411,-1.1455,-1.1465,-1.1475,-1.1479,-1.1481,-1.1486,-1.1516,-1.1522,-1.1457,-1.1457,-1.1457,0,0,-1.1113,-1.1134,-1.1149,-1.1189,-1.1208,-1.1237,-1.1229,-1.1259,-1.1282,-1.1287,-1.1327,-1.1344,-1.1375,-1.1419,-1.1439,-1.1434,-1.1506,-1.1485,-1.1487,-1.149,-1.152,-1.1526,-1.1531,-1.1459,-1.1458,-1.1458,0,0,-1.1144,-1.1161,-1.119,-1.121,-1.124,-1.1254,-1.1261,-1.1292,-1.1304,-1.1344,-1.135,-1.1378,-1.143,-1.1454,-1.1472,-1.1517,-1.1521,-1.1526,-1.1545,-1.1574,-1.1579,-1.1584,-1.1604,-1.1611,-1.153,-1.153,-1.153,0,-1.1152,-1.1193,-1.1205,-1.1236,-1.1255,-1.1261,-1.1293,-1.1313,-1.1351,-1.1366,-1.1358,-1.1427,-1.1448,-1.15,-1.1511,-1.1524,-1.1537,-1.1523,-1.1577,-1.1582,-1.1587,-1.1606,-1.1613,-1.1531,-1.1531,-1.1531,-1.1531,0,-1.1203,-1.1233,-1.1253,-1.129,-1.1312,-1.1343,-1.1363,-1.1383,-1.1391,-1.1407,-1.1451,-1.1476,-1.1514,-1.1526,-1.1533,-1.1581,-1.1577,-1.1573,-1.1561,-1.1593,-1.1612,-1.162,-1.1532,-1.1532,-1.1532,-1.1531,0,0,-1.1234,-1.1279,-1.1287,-1.1306,-1.1341,-1.1365,-1.1399,-1.1435,-1.1454,-1.1481,-1.1513,-1.1558,-1.1556,-1.1578,-1.1588,-1.1613,-1.1653,-1.1607,-1.1608,-1.1618,-1.1712,-1.1718,-1.1726,-1.1655,-1.1656,-1.1657,-1.1711,0,-1.1271,-1.1329,-1.1343,-1.1394,-1.1424,-1.1432,-1.1462,-1.1489,-1.1506,-1.1536,-1.1555,-1.1589,-1.1581,-1.1595,-1.162,-1.1642,-1.1672,-1.1638,-1.1688,-1.169,-1.1683,-1.1735,-1.1739,-1.1789,-1.1718,-1.1719,-1.172,0,-1.1322,-1.1351,-1.1405,-1.1441,-1.1454,-1.148,-1.1517,-1.1544,-1.1577,-1.1588,-1.1613,-1.1622,-1.1662,-1.1646,-1.1704,-1.168,-1.1702,-1.1716,-1.1719,-1.1726,-1.1709,-1.1747,-1.1804,-1.1813,-1.1731,-1.173,-1.173,0,-1.1343,-1.1396,-1.1437,-1.1452,-1.1493,-1.1513,-1.1531,-1.1562,-1.1584,-1.1617,-1.1633,-1.167,-1.1691,-1.1721,-1.1742,-1.1728,-1.1799,-1.1784,-1.1813,-1.1813,-1.1829,-1.1828,-1.1894,-1.1837,-1.1837,-1.1837,-1.1837,0,-1.1385,-1.1419,-1.1447,-1.1472,-1.1512,-1.1529,-1.1569,-1.1588,-1.1617,-1.1649,-1.1657,-1.1688,-1.1711,-1.1746,-1.1762,-1.181,-1.1818,-1.1831,-1.1836,-1.1832,-1.1831,-1.1849,-1.1847,-1.1839,-1.1839,-1.1838,-1.1838,0,-1.1416,-1.1435,-1.1481,-1.1517,-1.1527,-1.1556,-1.1588,-1.1615,-1.1633,-1.1674,-1.1685,-1.1714,-1.1756,-1.1778,-1.183,-1.1842,-1.1897,-1.1897,-1.1886,-1.1888,-1.1918,-1.1916,-1.1999,-1.2013,-1.1944,-1.1944,-1.1945,0,-1.1442,-1.1469,-1.1509,-1.153,-1.1549,-1.1583,-1.1607,-1.1626,-1.1651,-1.1693,-1.1716,-1.1758,-1.1793,-1.186,-1.1888,-1.1929,-1.1934,-1.196,-1.194,-1.1938,-1.1939,-1.1939,-1.1944,-1.1964,-1.1965,-1.1965,-1.1966,0,-1.1488,-1.1498,-1.153,-1.1568,-1.1596,-1.1627,-1.1657,-1.1675,-1.1701,-1.1729,-1.1771,-1.1799,-1.1853,-1.1897,-1.1942,-1.1964,-1.1971,-1.1972,-1.1982,-1.198,-1.1974,-1.1982,-1.1899,-1.197,-1.197,-1.1969,-1.1969,-1.1969,-1.152,-1.1546,-1.1579,-1.1617,-1.1643,-1.1672,-1.1701,-1.1723,-1.1759,-1.1805,-1.1814,-1.1861,-1.1898,-1.1959,-1.1983,-1.2022,-1.2017,-1.203,-1.2034,-1.2038,-1.2041,-1.1965,-1.203,-1.203,-1.2029,-1.2029,-1.2029,0,-1.157,-1.1593,-1.1627,-1.1671,-1.1702,-1.1704,-1.174,-1.1767,-1.1807,-1.184,-1.1875,-1.1928,-1.1971,-1.2004,-1.2049,-1.2075,-1.208,-1.2087,-1.2087,-1.2093,-1.204,-1.203,-1.2083,-1.2083,-1.2083,-1.2082,-1.2082,-1.2082,-1.16,-1.1645,-1.166,-1.172,-1.1743,-1.1789,-1.1809,-1.1839,-1.1866,-1.1924,-1.196,-1.198,-1.2015,-1.2064,-1.2106,-1.2115,-1.2134,-1.2141,-1.2151,-1.2102,-1.2096,-1.2091,-1.2081,-1.2144,-1.2144,-1.2201,-1.2201,-1.2202]},{"header":{"parameterUnit":"m.s-1","parameterCategory":1,"la1":30.2991,"la2":30.254,"lo1":-89.0895,"lo2":-89.0444,"dy":0.0017,"dx":0.0017,"nx":28,"ny":28,"refTime":"2024-03-27T03:00:00:Z","depth":0,"parameterNumber":3,"parameterNumberName":"V-component_of_WINDS"},"data":[0,0,0,0,0,0,0,0,0,0,0,0,0,0,0,0,0,0,0,0,0,0,0,0,0,0,0,0,0,0,0,0,0,0,0,0,0,0,0,0,0,0,0,0,0,0,0,0,0,0,0,0,0,0,0,0,0,0,0.1041,0.1039,0,0.0837,0.0835,0.0832,0.0767,0.0768,0.0769,0.077,0.0552,0.0546,0.0539,0,0,0,0,0,0,0,0,0,0,0,0,0,0.1367,0.1361,0.1042,0.1039,0.1037,0.0837,0.0835,0.0832,0.0767,0.0768,0.077,0.0771,0.0554,0.0546,0.0538,0,0,0,0,0,0,0,0,0,0,0,0,0,0.12,0.136,0.1042,0.0981,0.0973,0.0838,0.0834,0.0831,0.0767,0.0768,0.077,0.0771,0.0557,0.0547,0.0537,0.0446,0,0,0.0507,0.0502,0,0,0,0,0,0,0,0,0.121,0.1188,0.0992,0.0985,0.0976,0.0829,0.0869,0.0702,0.0767,0.0845,0.077,0.0772,0.0643,0.0626,0.0584,0.0436,0.0426,0.0506,0.05,0.0495,0.0492,0,0,0,0,0,0,0,0.1222,0.1197,0.096,0.0989,0.0979,0.096,0.0938,0.0837,0.0738,0.0838,0.0833,0.081,0.0638,0.0594,0.0578,0.0423,0.0506,0.0497,0.0491,0.0487,0.0186,0.0184,0,0,0,0,0,0,0.1245,0.1207,0.0967,0.0954,0.1099,0.0953,0.0928,0.0875,0.0739,0.072,0.0809,0.0808,0.061,0.059,0.057,0.0451,0.0495,0.0486,0.048,0.0188,0.0185,0.0183,0,0,0,0,0,0,0.1252,0.1224,0.0975,0.1079,0.1046,0.0946,0.0886,0.087,0.0825,0.0717,0.0698,0.0782,0.0611,0.0584,0.0477,0.0443,0.0481,0.0472,0.019,0.0187,0.0184,0.0215,0,0,0,0,0,0,0.1262,0.1227,0.1194,0.1079,0.1041,0.0888,0.0884,0.0865,0.0809,0.0805,0.0687,0.0668,0.061,0.0493,0.0467,0.043,0.0464,0.0193,0.0189,0.0185,0.0216,0.0213,0.021,0,0,0,0,0,0.1274,0.1209,0.1192,0.1164,0.0997,0.0887,0.0864,0.0801,0.0807,0.077,0.07,0.0672,0.0452,0.0482,0.0453,0.0412,0.0194,0.019,0.0186,0.0217,0.0214,0.0211,0,0,0,0,0,0,0.132,0.1193,0.1173,0.107,0.099,0.0876,0.0828,0.0799,0.0713,0.0713,0.0635,0.0609,0.0506,0.0449,0.0485,0.0314,0.0321,0.0311,0.0356,0.0351,0.0348,0.0362,0.0456,0,0,0,0,0,0.1319,0.1242,0.1134,0.1054,0.1015,0.0929,0.0878,0.0836,0.0749,0.0714,0.0636,0.055,0.046,0.0403,0.0315,0.0209,0.0179,0.0166,0.0163,0.0161,0.0152,0.0087,0.0078,0.0169,0.0169,0.0169,0,0,0.1314,0.1235,0.1191,0.1061,0.0994,0.0913,0.0901,0.0816,0.0754,0.07,0.0593,0.0534,0.0432,0.0324,0.0272,0.0272,0.0121,0.0156,0.0155,0.0146,0.0081,0.0073,0.0065,0.0166,0.0166,0.0167,0,0,0.1264,0.1199,0.1123,0.1056,0.0955,0.0898,0.0881,0.077,0.0729,0.0622,0.0579,0.0503,0.0352,0.028,0.0224,0.0146,0.0115,0.012,0.0103,0.0041,0.0034,0.0027,-0.0005,-0.0015,0.0112,0.0112,0.0112,0,0.127,0.1149,0.1087,0.1004,0.0946,0.0897,0.0817,0.0754,0.0629,0.0589,0.0592,0.04,0.0329,0.0201,0.0182,0.014,0.0113,0.0131,0.0041,0.0033,0.0026,-0.0006,-0.0017,0.0113,0.0112,0.0112,0.0112,0,0.1159,0.1076,0.1026,0.0909,0.0846,0.0765,0.0687,0.0631,0.0594,0.0536,0.0425,0.0338,0.023,0.0198,0.0161,0.0064,0.0066,0.0057,0.0061,0.0019,-0.0012,-0.0025,0.0114,0.0114,0.0113,0.0113,0,0,0.113,0.098,0.0962,0.0907,0.0792,0.0724,0.064,0.0538,0.0488,0.0404,0.0328,0.0202,0.0191,0.0127,0.0082,0.0028,-0.0033,0.0023,0.002,0.0012,-0.0151,-0.0145,-0.0158,-0.0053,-0.0055,-0.0057,-0.0144,0,0.1062,0.0912,0.0853,0.0729,0.0649,0.06,0.0526,0.0446,0.0389,0.031,0.0247,0.0157,0.0152,0.0113,0.0058,-0.0014,-0.0068,-0.0008,-0.0129,-0.0132,-0.0106,-0.0174,-0.0168,-0.0246,-0.0156,-0.0158,-0.0159,0,0.0962,0.0878,0.0747,0.064,0.0604,0.0539,0.0438,0.0365,0.0272,0.0234,0.0163,0.0121,0.0026,0.0041,-0.0093,-0.0051,-0.0103,-0.0146,-0.0151,-0.0168,-0.0151,-0.0197,-0.0272,-0.0285,-0.0178,-0.0177,-0.0176,0,0.0949,0.0803,0.0705,0.066,0.0533,0.0488,0.0433,0.0341,0.0282,0.0194,0.0154,0.0055,-0.0,-0.0077,-0.0147,-0.0129,-0.0275,-0.0266,-0.0313,-0.0312,-0.0345,-0.0343,-0.0433,-0.0371,-0.0371,-0.0371,-0.037,0,0.0876,0.0797,0.0697,0.0636,0.0544,0.0477,0.0387,0.0328,0.0247,0.0171,0.0123,0.0052,-0.0033,-0.0116,-0.017,-0.0275,-0.0298,-0.0335,-0.0349,-0.0333,-0.0329,-0.0372,-0.037,-0.0374,-0.0373,-0.0373,-0.0372,0,0.0844,0.0775,0.0664,0.0554,0.0524,0.0461,0.0365,0.0302,0.0244,0.0148,0.0122,0.0029,-0.0071,-0.0146,-0.0276,-0.0314,-0.0426,-0.0439,-0.0394,-0.0403,-0.0447,-0.0444,-0.0572,-0.0595,-0.0512,-0.0513,-0.0514,0,0.0801,0.0738,0.0622,0.0569,0.0514,0.043,0.0369,0.03,0.0239,0.0127,0.0076,-0.0026,-0.0112,-0.0271,-0.0352,-0.0453,-0.0471,-0.0509,-0.0487,-0.047,-0.0478,-0.0475,-0.0484,-0.0514,-0.0514,-0.0515,-0.0515,0,0.0729,0.0697,0.0614,0.0518,0.0448,0.0368,0.0287,0.0246,0.0161,0.0094,-0.0007,-0.0074,-0.0206,-0.031,-0.0418,-0.0479,-0.0514,-0.052,-0.0538,-0.0525,-0.0498,-0.0518,-0.0407,-0.0519,-0.0518,-0.0518,-0.0518,-0.0518,0.0686,0.0627,0.0535,0.0443,0.0376,0.0301,0.0236,0.017,0.0085,-0.0027,-0.0063,-0.0169,-0.0264,-0.0413,-0.0475,-0.0562,-0.0563,-0.0586,-0.0593,-0.0599,-0.06,-0.0479,-0.0581,-0.0581,-0.0581,-0.0581,-0.0581,0,0.0607,0.0546,0.0463,0.0352,0.0278,0.0257,0.0166,0.0105,0.0013,-0.0071,-0.0154,-0.0273,-0.0374,-0.0462,-0.0567,-0.062,-0.0639,-0.0646,-0.0646,-0.066,-0.0591,-0.0568,-0.063,-0.063,-0.0629,-0.0629,-0.0629,-0.0629,0.0558,0.0456,0.0414,0.0276,0.0215,0.0112,0.0061,-0.0009,-0.0077,-0.0207,-0.0289,-0.0345,-0.0433,-0.0545,-0.0639,-0.0663,-0.0702,-0.0706,-0.0735,-0.067,-0.0664,-0.0659,-0.0638,-0.0713,-0.0713,-0.0797,-0.0798,-0.0798]}]]